[Date Prev][Date Next][Thread Prev][Thread Next] - [Date Index][Thread Index][Author Index]
2 Line ISS Keps 1-31
- Subject: [sarex] 2 Line ISS Keps 1-31
- From: "Dave Larsen PhD" <doc@xxxxxxxxxxx>
- Date: Sun, 30 Jan 2005 17:40:35 -0800
ISS
1 25544U 98067A 05031.00478142 .00010236 00000-0 86378-4 0 7058
2 25544 51.6452 242.3622 0009600 48.7308 105.4601 15.70441348354119
----
Via the sarex mailing list at AMSAT.ORG courtesy of AMSAT-NA.
To unsubscribe, send "unsubscribe sarex" to Majordomo@amsat.org
AMSAT Home